{"data":{"norad_id":65958,"intl_designator":"2025-228M","name":"KUIPER-00129","alt_names":[],"object_type":"PAYLOAD","status":"ACTIVE","operator":null,"country":"US","launch_date":"2025-10-14","launch_site_code":"AFETR","launch_vehicle":null,"mission":null,"orbit_class":"UNKNOWN","rcs_meters":null,"size_class":null,"mass_kg":null,"dimensions":null,"purposes":[],"wikipedia_slug":null,"has_3d_model":false,"image_url":null,"decayed_at":null,"tle_current":{"epoch":"2026-09-20T10:20:47.371776Z","epoch_age_seconds":149642,"freshness":"FRESH","line1":"1 65958U 25228M   26263.43110384  .00006698  00000+0  90625-3 0  9998","line2":"2 65958  51.8993 206.9616 0001141 132.3862 227.7197 14.79955610 52247","mean_motion":14.7995561,"eccentricity":0.0001141,"inclination_deg":51.8993,"raan_deg":206.9616,"arg_perigee_deg":132.3862,"mean_anomaly_deg":227.7197,"bstar":0.00090625,"rev_number":5224,"period_min":97.300215646333,"perigee_km":628.66468861315,"apogee_km":630.26382321975,"semimajor_km":7007.6012559164,"source":"CELESTRAK","updated_at":"2026-09-21T09:00:15.680473Z"}}}